Location: Bastelaar
(51.0950°N, 3.8602°E)
Time: 18:29:02
(UTC+00:00)

Cosmos 304 Rocket - Pass Details

Date: 18 November 2025
Orbit: 668 x 677 km, 74.0° (Epoch: 10 December)

Event Time Altitude Azimuth Distance (km) Brightness Sun altitude
Rises 18:41:40 0° 211° (SSW) 3,005 7.5 -26.2°
Reaches altitude 10° 18:43:58 10° 215° (SW) 2,097 6.6 -26.5°
Maximum altitude 18:48:39 65° 297° (WNW) 743 4.0 -27.3°
Enters shadow 18:48:45 65° 305° (NW) 744 4.0 -27.3°
